Regional Weather Roundup
Issued by NWS Jackson, KY

Home | Current Version | Previous Version | Text Only | Print | Product List | Glossary On
Versions: 1 2 3 4 5 6 7 8 9 10 11 12 13 14 15 16 17 18 19 20 21 22 23 24 25 26 27 28 29 30 31 32 33 34 35 36 37 38 39 40 41 42 43 44 45 46 47 48 49 50
000
ASUS43 KJKL 231519
RWRJKL

EAST KENTUCKY HOURLY WEATHER ROUNDUP
NATIONAL WEATHER SERVICE JACKSON KY
1100 AM EDT SAT AUG 23 2014

NOTE: "FAIR" INDICATES FEW OR NO CLOUDS BELOW 12,000 FEET WITH
NO SIGNIFICANT WEATHER AND/OR OBSTRUCTIONS TO VISIBILITY.

* THESE REPORTS ARE NOT UNDER NWS QUALITY CONTROL AND MAY NOT
  REPORT WEATHER SUCH AS PRECIPITATION AND FOG.

KYZ079-080-083-085-087-088-110-112-115-119-120-231600
...EASTERN KENTUCKY...

CITY           SKY/WX    TMP DP  RH WIND       PRES   REMARKS
JACKSON        CLOUDY    75  71  87 CALM      30.07R
LONDON         CLOUDY    81  70  69 SW5       30.06R
SOMERSET*      MOSUNNY   81  70  69 CALM      30.06R
MONTICELLO*    SUNNY     85  75  71 CALM      30.06S HX  93
MIDDLESBORO*   MOSUNNY   82  73  72 CALM      30.05S
HARLAN APT*    PTSUNNY   81  72  74 MISG      30.07R
BLACK MTN*       N/A     68  68 100 VRB5        N/A
PIKEVILLE APT* CLOUDY    73  72  94 NW5       30.07R
BIG SANDY*     CLOUDY    74  72  93 W3        30.05R
MOREHEAD APT*  PTSUNNY   75  73  94 CALM      30.07R FOG
ASHLAND*       CLOUDY    73  72  94 CALM      30.01R
$$

KYZ035-036-041-042-044-050-067-078-099-231600
...CENTRAL KENTUCKY...

CITY           SKY/WX    TMP DP  RH WIND       PRES   REMARKS
MT STERLING*   CLOUDY    77  73  88 CALM      30.06S
FLEMING/MASON* CLOUDY    73  73 100 CALM      30.05S FOG
DANVILLE*      CLOUDY    79  72  78 CALM      30.06R
RICHMOND*      MOSUNNY   79  70  73 CALM      30.05R
LEXINGTON      MOSUNNY   81  74  79 CALM      30.04S
FRANKFORT      MOSUNNY   81  73  76 CALM      30.02S
$$

KYZ091>093-OHZ055-061-077-WVZ005-015-034-035-042-231600
...SOUTHERN OHIO/WEST VIRGINIA...

CITY           SKY/WX    TMP DP  RH WIND       PRES   REMARKS
COVINGTON      PTSUNNY   83  73  72 NE3       30.03R
COLUMBUS       PTSUNNY   82  70  66 E5        30.02R
DAYTON         PTSUNNY   79  73  82 SE5       30.03F
WILMINGTON     PTSUNNY   79  71  76 NE3       30.03R
HUNTINGTON     FOG       73  72  96 CALM      30.02R VSB 1
CHARLESTON     CLOUDY    76  72  87 CALM      30.03R FOG
PINEVILLE*     CLOUDY    74  73  95 MISG      30.12R
BECKLEY        CLOUDY    71  68  90 NW5       30.10R
BLUEFIELD      CLOUDY    72  68  87 CALM      30.13R FOG
$$

VAZ002-007-008-TNZ017-027-036-066-071-231600
...SOUTHWEST VIRGINIA/EAST TENNESSEE...

CITY           SKY/WX    TMP DP  RH WIND       PRES   REMARKS
WISE*          CLOUDY    73  72  94 NW5       30.13R
JONESVILLE*      N/A     81  72  74 CALM      30.08R
ABINGDON*      CLOUDY    77  73  87 W5        30.09S
BRISTOL        MOSUNNY   78  70  76 CALM      30.06S
KNOXVILLE      MOSUNNY   82  73  74 CALM      30.03S
OAK RIDGE      SUNNY     85  73  67 CALM      30.04S HX  91
CROSSVILLE     PTSUNNY   79  72  79 W6        30.11R
NASHVILLE      PTSUNNY   85  71  63 CALM      30.04S HX  90
$$

...KEY TO REMARKS...
VSB - VISIBILITY IN MILES
WCI - WIND CHILL INDEX
HX  - HEAT INDEX

$$


USA.gov is the U.S. government's official web portal to all federal, state and local government web resources and services.